EHI
0 0 0 0 0 1 1 1 0 0 0 0 0 0 0 0 0 0 0 2 4 4 1 0 0 0 0 0 0 0 0 0 0 0 0 0 0 0 0 0 0 0 0
0 0 0 0 0 0 0 0 0 0 0 0 0 0 0 0 0 0 0 1 2 1 0 0 0 0 0 0 0 0 0 0 0 0 0 0 0 0 0 0 0 0 0
0 0 0 0 0 0 0 0 0 0 0 0 0 0 0 0 0 0 0 0 0 0 0 0 0 0 0 0 0 0 0 0 0 0 0 0 0 0 0 0 0 0 0
0 0 0 0 0 0 0 0 0 0 0 0 0 0 0 0 0 0 0 0 0 0 0 0 0 0 0 0 0 0 0 0 0 0 0 0 0 0 0 0 0 0 0
0 0 0 0 0 0 0 0 0 0 0 0 0 0 0 0 0 0 0 0 0 0 0 0 0 0 0 0 0 0 0 0 0 0 0 0 0 0 0 0 0 0 0
0 0 0 0 0 0 0 0 0 0 0 0 0 0 0 0 0 0 0 0 0 0 0 0 0 0 0 0 0 0 0 0 0 0 0 0 0 0 0 0 0 0 0
0 0 0 0 0 0 0 0 0 0 0 0 0 0 0 0 0 0 0 0 0 0 0 0 0 0 0 0 0 0 0 0 0 0 0 0 0 0 0 0 0 0 0
0 0 0 0 0 0 0 0 0 0 0 0 0 0 0 0 0 0 0 0 0 0 0 0 0 0 0 0 0 0 0 0 0 0 0 0 0 0 0 0 0 0 0
0 0 0 0 0 0 0 0 0 0 0 0 0 0 0 0 0 0 0 0 0 0 0 0 0 0 0 0 0 0 0 0 0 0 0 0 0 0 0 0 0 0 0
0 0 0 0 0 0 0 0 0 0 0 0 0 0 0 0 0 0 0 0 0 0 0 0 0 0 0 0 0 0 0 0 0 0 0 0 0 0 0 0 0 0 0
0 0 0 1 1 0 0 0 0 0 0 0 0 0 0 0 0 0 0 0 0 0 0 0 0 0 0 0 0 0 0 0 0 0 0 0 0 0 0 0 0 0 0
0 0 1 2 1 0 0 0 0 0 0 0 0 0 0 0 0 0 0 0 0 0 0 0 0 0 0 0 0 0 0 0 0 0 0 0 0 0 0 0 0 0 0
0 0 2 2 1 0 0 0 0 0 0 0 0 0 0 0 0 0 0 0 0 0 0 0 0 0 0 0 0 0 0 0 0 0 0 0 0 0 0 0 0 0 0
0 0 1 1 1 0 0 0 0 0 0 0 0 0 0 0 0 0 0 0 0 0 0 0 0 0 0 0 0 0 0 0 0 0 0 0 0 0 0 0 0 0 0
0 0 0 0 0 0 0 0 0 0 0 0 0 0 0 0 0 0 0 0 0 0 0 0 0 0 0 0 0 0 0 0 0 0 0 0 0 0 0 0 0 0 0
0 0 0 0 0 0 0 0 0 0 0 0 0 0 0 0 0 0 0 0 0 0 0 0 0 0 0 0 0 0 0 0 0 0 0 0 0 0 0 0 0 0 0
0 0 0 0 0 0 0 0 0 0 0 0 0 0 0 0 0 0 0 0 0 0 0 0 0 0 0 0 0 0 0 0 0 0 0 0 0 0 0 0 0 0 0
0 0 0 0 0 0 0 0 0 0 0 0 0 0 0 0 0 0 0 0 0 0 0 0 0 0 0 0 0 0 0 0 0 0 0 0 0 0 0 0 0 0 0
0 0 0 0 0 0 0 0 0 0 0 0 0 0 0 0 0 0 0 0 0 0 0 0 0 0 0 0 0 0 0 0 0 0 0 0 0 0 0 0 0 0 0
0 0 0 0 0 0 0 0 0 0 0 0 0 0 0 0 0 0 0 0 0 0 0 0 0 0 0 0 0 0 0 0 0 0 0 0 0 0 0 0 0 0 0
0 0 0 0 0 0 0 0 0 0 0 0 0 0 0 0 0 0 0 0 0 0 0 0 0 0 0 0 0 0 0 0 0 0 0 0 0 0 0 0 0 0 0
0 0 0 0 0 0 0 0 0 0 0 0 0 0 0 0 0 0 0 0 0 0 0 0 0 0 0 0 0 0 0 0 0 0 0 0 0 0 0 0 0 0 0
0 0 0 0 0 0 0 0 0 0 0 0 0 0 0 0 0 0 0 0 0 0 0 0 0 0 0 0 0 0 0 0 0 0 0 0 0 0 0 0 0 0 0
0 0 0 0 0 0 0 0 0 0 0 0 0 0 0 0 0 0 0 0 0 0 0 0 0 0 0 0 0 0 0 0 0 0 0 0 0 0 0 0 0 0 0
0 0 0 0 0 0 0 0 0 0 0 0 0 0 0 0 0 0 0 0 0 0 0 0 0 0 0 0 0 0 0 0 0 0 0 0 0 0 0 0 0 0 0
0 0 0 0 0 0 0 0 0 0 0 0 0 0 0 0 0 0 0 0 0 0 0 0 0 0 0 0 0 0 0 0 0 0 0 0 0 0 0 0 0 0 0
Wind_Speed
5 5 4 4 5 4 5 5 5 5 6 6 6 6 6 5 5 5 4 11 11 11 11 10 10 9 8 8 8 8 8 8 8 8 8 8 8 8 8 7 7 7 6
5 5 5 5 5 5 6 6 6 6 6 5 6 7 7 6 6 6 5 7 11 10 11 11 11 10 9 9 9 9 8 8 8 8 8 8 8 7 7 6 6 6 5
6 5 5 5 5 5 6 5 6 5 5 4 6 6 5 6 8 7 6 5 5 9 10 11 11 11 10 10 10 9 9 9 8 8 8 8 7 7 7 6 6 5 4
5 4 4 4 4 4 4 5 4 4 5 4 4 4 4 5 8 8 6 5 5 5 7 10 11 11 11 11 10 10 10 10 9 9 8 8 7 7 7 6 5 5 4
4 3 4 4 4 4 4 5 4 3 4 4 4 3 3 4 6 8 7 7 6 5 5 8 11 11 11 11 11 11 11 11 10 10 9 8 8 7 7 6 6 5 5
4 4 4 4 4 4 3 3 3 3 3 3 3 2 2 3 4 6 7 7 6 6 6 6 6 8 11 11 11 12 12 12 11 11 10 10 9 8 7 7 6 6 5
4 4 4 4 4 4 5 5 3 3 3 2 2 0 1 0 2 4 4 5 7 7 6 6 5 4 5 10 11 12 13 13 12 12 11 10 9 9 8 7 7 6 6
4 4 4 4 5 4 5 5 4 3 2 3 3 3 0 2 1 2 3 4 6 5 6 7 5 5 4 4 7 11 11 12 13 12 12 11 10 9 8 8 7 6 6
4 4 4 4 5 5 5 6 6 6 4 2 2 4 4 4 2 1 2 3 4 4 5 5 6 6 6 5 5 9 11 11 12 13 12 11 11 10 9 8 7 6 5
4 4 4 4 5 5 5 6 6 5 5 4 3 2 2 4 4 2 1 1 3 4 5 5 6 6 6 5 6 9 11 11 12 13 13 12 11 10 9 9 8 7 6
4 4 4 4 4 4 5 6 5 6 5 5 4 3 2 1 2 3 2 1 1 2 3 4 3 4 6 5 5 8 12 12 12 12 13 12 12 11 10 9 8 8 7
3 4 3 3 4 4 5 6 5 6 5 5 4 4 4 3 3 3 3 2 2 2 2 2 3 3 4 5 8 11 12 12 11 11 11 11 11 11 11 10 9 9 8
3 4 4 3 3 3 4 4 5 6 6 6 6 5 4 4 3 3 3 2 2 1 1 1 2 2 3 4 5 10 11 11 11 10 9 9 9 9 10 10 9 9 8
3 4 4 2 2 1 2 3 4 5 5 6 7 6 4 4 3 3 4 4 2 1 1 2 1 1 2 3 5 10 7 10 10 9 9 9 9 9 8 8 8 8 7
4 5 5 4 2 1 1 2 2 3 4 5 5 6 4 4 4 3 3 4 5 4 3 2 2 1 2 2 5 5 5 8 9 8 9 9 9 8 8 7 6 5 4
7 7 7 6 5 4 3 1 1 1 2 3 3 5 5 4 4 4 4 3 3 4 3 2 2 2 2 3 5 4 4 8 9 8 8 8 8 7 7 7 6 5 5
8 8 7 7 7 7 5 3 2 2 2 2 2 4 4 4 4 3 3 3 3 3 3 2 1 1 2 3 3 3 3 3 3 7 7 6 6 6 6 5 5 5 5
8 8 7 7 7 6 6 5 4 3 2 2 2 3 3 3 3 3 3 4 3 3 3 3 1 1 2 3 4 4 3 3 2 4 6 5 5 4 4 4 4 4 4
7 8 8 8 7 6 6 6 5 4 3 2 2 2 3 3 3 2 3 4 3 3 3 3 3 1 1 2 3 3 3 3 3 5 6 5 6 5 5 4 4 4 4
7 7 7 7 7 6 6 6 6 5 4 3 2 2 2 3 3 3 3 3 3 3 3 3 3 2 2 2 3 4 3 2 3 5 6 7 8 8 7 6 5 4 4
7 6 7 7 7 6 6 6 5 5 4 4 4 3 2 2 3 3 3 3 4 3 3 3 3 2 2 3 3 3 4 4 4 3 5 5 5 5 5 6 6 6 5
6 6 7 7 7 6 10 10 6 5 4 4 4 3 3 3 3 3 4 5 6 5 4 3 3 3 3 3 3 4 5 4 3 2 4 4 4 5 4 4 6 7 7
5 6 6 7 7 8 11 11 9 5 5 5 4 4 3 4 4 3 5 6 4 4 5 5 4 4 4 4 5 5 4 3 4 4 4 4 3 4 4 5 8 8 8
4 4 5 6 6 9 12 10 10 6 5 5 5 4 4 3 3 4 5 5 5 4 3 3 4 3 3 4 5 5 6 6 6 3 3 4 2 3 4 4 8 9 8
4 4 4 6 7 8 13 11 9 4 5 5 5 5 4 4 5 6 6 6 6 5 6 8 7 6 7 8 8 7 7 7 5 2 2 4 3 2 2 3 5 9 8
3 4 5 5 6 7 12 12 9 4 5 4 5 5 7 5 6 6 5 5 6 4 4 6 7 8 7 7 8 6 6 6 4 3 2 4 3 3 3 1 2 3 4
Wind_Direction
224 219 216 213 206 202 204 208 214 221 229 237 238 234 222 211 195 190 191 191 184 181 180 178 174 171 169 166 160 156 151 149 147 144 141 141 140 137 134 133 131 127 126
225 214 211 212 210 206 208 209 212 218 225 226 233 229 218 199 188 188 187 189 188 184 183 183 181 179 178 175 171 166 162 159 157 155 152 150 149 147 144 143 141 138 136
218 212 208 207 210 207 206 210 217 218 226 224 229 224 210 190 179 184 186 183 185 189 187 189 187 186 186 184 181 176 172 169 167 166 165 163 160 159 158 158 157 156 156
224 215 211 210 205 197 200 204 206 205 222 220 215 209 192 178 178 182 184 183 182 186 193 195 190 189 190 191 189 185 180 177 177 177 175 172 170 170 171 175 176 176 178
235 220 218 214 198 189 194 207 201 195 207 211 211 201 180 176 180 183 185 187 188 187 187 196 192 192 195 195 194 192 189 187 186 186 185 183 183 185 187 189 188 190 193
248 232 225 220 203 192 191 199 197 196 194 191 195 188 182 189 183 184 188 188 192 194 190 192 191 199 200 198 199 199 196 194 194 194 193 192 192 194 197 198 198 202 204
251 240 237 223 211 202 200 194 189 195 197 164 128 88 342 263 190 187 192 188 193 195 189 191 192 192 203 205 202 201 201 199 199 199 200 199 198 199 202 205 207 210 213
262 251 236 224 211 207 205 198 185 181 192 167 145 132 137 335 306 213 185 185 189 185 190 196 194 195 198 194 206 205 204 202 203 202 202 202 201 200 203 207 209 213 217
269 257 244 230 217 205 207 203 194 182 186 192 172 154 158 200 223 279 205 180 172 171 186 190 197 201 201 196 195 210 208 204 205 204 204 203 202 203 206 208 210 214 218
278 260 248 235 225 213 210 210 200 189 176 188 198 202 170 157 156 185 285 199 166 167 179 187 196 200 197 194 197 202 205 205 207 207 205 203 202 202 203 204 208 211 216
287 274 255 239 231 222 213 206 198 191 186 188 182 173 170 157 143 147 180 197 175 180 183 183 181 190 193 191 194 201 203 203 204 207 205 202 200 200 201 202 204 207 210
302 293 273 250 236 227 219 210 201 197 197 194 189 179 170 169 177 163 166 180 189 202 185 182 182 186 188 187 197 197 201 202 205 207 205 203 202 203 204 204 202 204 208
316 313 305 269 247 233 222 208 199 203 198 193 197 199 195 190 161 158 156 159 170 196 169 185 200 186 184 181 188 186 198 201 206 208 205 204 203 204 208 209 208 207 207
318 322 324 309 287 256 227 201 194 202 194 197 203 199 194 198 181 168 163 153 154 179 207 211 218 201 179 178 183 176 186 196 204 209 208 206 206 205 207 209 211 212 213
358 2 3 8 356 349 291 193 192 198 189 197 199 197 194 195 189 183 169 161 159 177 211 212 197 202 177 165 167 165 166 191 201 211 213 211 208 204 204 205 201 197 195
15 17 18 23 24 21 22 40 148 177 175 183 185 186 190 189 182 181 179 174 167 167 190 201 199 183 173 162 162 161 174 189 200 205 210 208 200 197 200 200 195 181 177
20 21 19 23 27 25 26 35 48 91 124 145 159 171 179 173 173 177 171 167 168 160 172 185 164 137 142 149 140 143 157 170 187 197 200 197 192 188 188 186 183 179 183
22 23 21 24 27 27 25 30 37 55 87 114 132 141 161 164 173 173 170 170 169 167 166 166 155 144 137 155 144 141 146 155 155 173 172 170 169 165 164 169 172 176 177
21 21 23 23 22 22 24 26 34 43 63 80 102 141 155 150 162 171 168 166 167 169 160 154 155 139 125 135 121 115 113 106 131 128 125 119 115 114 117 126 147 149 144
23 20 20 18 18 20 25 25 32 37 46 55 70 97 123 146 158 159 160 161 152 154 152 147 141 135 128 128 125 127 113 96 103 102 91 90 89 84 83 91 106 117 124
23 16 20 17 13 17 25 28 32 42 49 55 57 65 76 106 143 153 155 159 152 152 146 142 138 132 137 144 150 142 128 114 85 94 94 78 74 69 62 63 74 85 98
12 17 18 16 17 19 27 36 44 42 48 59 56 44 53 57 77 113 147 156 158 158 157 152 151 153 158 152 140 140 138 133 119 110 98 76 64 68 55 57 72 82 86
11 15 13 12 10 8 27 40 49 55 55 51 49 46 52 54 62 72 87 93 106 129 153 153 152 162 163 163 147 143 140 124 112 127 108 86 60 62 46 54 68 75 81
8 11 13 11 12 14 30 43 54 52 56 50 45 46 55 47 62 86 89 80 71 66 104 129 144 156 158 149 145 138 127 105 92 83 93 99 78 64 47 39 58 70 75
11 11 13 18 20 11 30 47 56 48 55 45 37 41 57 59 69 90 95 93 81 66 75 88 92 96 109 122 127 122 126 129 121 100 76 107 123 105 64 38 42 57 69
11 19 25 21 22 15 26 43 50 49 53 41 29 30 44 59 77 87 96 102 98 84 84 80 72 68 77 96 108 129 141 140 128 129 135 116 140 138 109 57 31 31 47